When you browse on this site, cookies collect data to enhance your experience and personalize the content and advertising you see.
Visit our Privacy Policy to learn more. By continuing to use the site, you agree to this use of cookies and data.
  • In Latvia
  • List of Countries
  • For 7 days
  • Water Temperature
  • Satellite Maps
  • Weather Map
  • Weather Widgets
  • user-avatar
    Login

    Hourly Weather Ali Bayramli

    Today, 27 May, Monday

    Time Temperature Precipitation Wind Pressure Humidity
    00:00 +22°C° 0.1 mm 3 mps 758 mmHg 73%
    01:00 +22°C° 0 mm 3 mps 758 mmHg 75%
    02:00 +23°C° 0 mm 2 mps 758 mmHg 76%
    03:00 +21°C° 0 mm 2 mps 758 mmHg 79%
    04:00 +23°C° 0 mm 2 mps 759 mmHg 75%
    05:00 +23°C° 0 mm 2 mps 759 mmHg 71%
    06:00 +23°C° 0 mm 2 mps 759 mmHg 66%
    07:00 +25°C° 0 mm 2 mps 760 mmHg 59%
    08:00 +26°C° 0 mm 2 mps 760 mmHg 53%
    09:00 +27°C° 0 mm 2 mps 760 mmHg 47%
    10:00 +28°C° 0 mm 2 mps 760 mmHg 43%
    11:00 +29°C° 0 mm 3 mps 760 mmHg 40%
    12:00 +30°C° 0 mm 3 mps 760 mmHg 36%
    13:00 +30°C° 0 mm 5 mps 760 mmHg 38%
    14:00 +30°C° 0 mm 6 mps 760 mmHg 40%
    15:00 +29°C° 0 mm 7 mps 760 mmHg 42%
    16:00 +28°C° 0 mm 7 mps 760 mmHg 44%
    17:00 +27°C° 0 mm 7 mps 760 mmHg 46%
    18:00 +26°C° 0 mm 7 mps 760 mmHg 49%
    19:00 +24°C° 0 mm 6 mps 761 mmHg 52%
    20:00 +23°C° 0 mm 5 mps 761 mmHg 55%
    21:00 +22°C° 0 mm 4 mps 762 mmHg 58%
    22:00 +22°C° 0 mm 3 mps 762 mmHg 61%
    23:00 +23°C° 0 mm 2 mps 762 mmHg 63%

    Tomorrow, 28 May, Tuesday

    Time Temperature Precipitation Wind Pressure Humidity
    00:00 +22°C° 0 mm 1 mps 762 mmHg 65%
    01:00 +22°C° 0 mm 1 mps 762 mmHg 66%
    02:00 +22°C° 0 mm 1 mps 762 mmHg 66%
    03:00 +21°C° 0 mm 1 mps 762 mmHg 67%
    04:00 +22°C° 0 mm 1 mps 762 mmHg 64%
    05:00 +23°C° 0 mm 1 mps 762 mmHg 60%
    06:00 +23°C° 0 mm 1 mps 762 mmHg 57%
    07:00 +24°C° 0 mm 1 mps 762 mmHg 51%
    08:00 +26°C° 0 mm 1 mps 762 mmHg 46%
    09:00 +27°C° 0 mm 1 mps 763 mmHg 40%
    10:00 +28°C° 0 mm 2 mps 762 mmHg 37%
    11:00 +29°C° 0 mm 3 mps 762 mmHg 34%
    12:00 +30°C° 0 mm 4 mps 762 mmHg 31%
    13:00 +30°C° 0 mm 4 mps 762 mmHg 32%
    14:00 +30°C° 0 mm 5 mps 762 mmHg 32%
    15:00 +30°C° 0 mm 6 mps 761 mmHg 32%
    16:00 +29°C° 0 mm 6 mps 761 mmHg 35%
    17:00 +28°C° 0 mm 6 mps 762 mmHg 38%
    18:00 +27°C° 0 mm 6 mps 762 mmHg 41%
    19:00 +26°C° 0 mm 5 mps 762 mmHg 45%
    20:00 +25°C° 0 mm 4 mps 762 mmHg 49%
    21:00 +24°C° 0 mm 3 mps 762 mmHg 53%
    22:00 +24°C° 0 mm 3 mps 762 mmHg 55%
    23:00 +24°C° 0 mm 2 mps 762 mmHg 57%

    Day after tomorrow, 29 May, Wednesday

    Time Temperature Precipitation Wind Pressure Humidity
    00:00 +23°C° 0 mm 1 mps 762 mmHg 59%
    01:00 +23°C° 0 mm 1 mps 762 mmHg 62%
    02:00 +22°C° 0 mm 1 mps 762 mmHg 64%
    03:00 +22°C° 0 mm 1 mps 762 mmHg 67%
    04:00 +22°C° 0 mm 1 mps 762 mmHg 65%
    05:00 +23°C° 0 mm 2 mps 762 mmHg 63%
    06:00 +23°C° 0 mm 2 mps 762 mmHg 61%
    07:00 +24°C° 0 mm 2 mps 762 mmHg 56%
    08:00 +26°C° 0 mm 2 mps 762 mmHg 51%
    09:00 +27°C° 0 mm 2 mps 762 mmHg 47%
    10:00 +28°C° 0 mm 2 mps 762 mmHg 43%
    11:00 +29°C° 0 mm 1 mps 762 mmHg 39%
    12:00 +30°C° 0 mm 1 mps 762 mmHg 35%
    13:00 +30°C° 0 mm 2 mps 761 mmHg 35%
    14:00 +30°C° 0 mm 3 mps 761 mmHg 35%
    15:00 +30°C° 0 mm 4 mps 761 mmHg 35%
    16:00 +30°C° 0 mm 4 mps 761 mmHg 37%
    17:00 +29°C° 0 mm 5 mps 760 mmHg 39%
    18:00 +28°C° 0 mm 6 mps 760 mmHg 41%
    19:00 +27°C° 0 mm 5 mps 761 mmHg 44%
    20:00 +26°C° 0 mm 4 mps 761 mmHg 47%
    21:00 +25°C° 0 mm 3 mps 761 mmHg 50%
    22:00 +24°C° 0 mm 2 mps 761 mmHg 52%
    23:00 +24°C° 0 mm 1 mps 761 mmHg 55%

    30 May, Thursday

    Time Temperature Precipitation Wind Pressure Humidity
    00:00 +23°C° 0 mm 1 mps 760 mmHg 58%
    01:00 +23°C° 0 mm 1 mps 760 mmHg 59%
    02:00 +22°C° 0 mm 1 mps 760 mmHg 60%
    03:00 +20°C° 0 mm 0 mps 760 mmHg 62%
    04:00 +23°C° 0 mm 1 mps 760 mmHg 58%
    05:00 +24°C° 0 mm 1 mps 760 mmHg 55%
    06:00 +24°C° 0 mm 1 mps 760 mmHg 51%
    07:00 +26°C° 0 mm 1 mps 760 mmHg 46%
    08:00 +27°C° 0 mm 1 mps 760 mmHg 41%
    09:00 +29°C° 0 mm 1 mps 760 mmHg 35%
    10:00 +30°C° 0 mm 1 mps 760 mmHg 33%
    11:00 +31°C° 0 mm 1 mps 760 mmHg 30%
    12:00 +32°C° 0 mm 1 mps 759 mmHg 28%
    13:00 +32°C° 0 mm 2 mps 759 mmHg 27%
    14:00 +34°C° 0 mm 3 mps 759 mmHg 27%
    15:00 +34°C° 0 mm 4 mps 759 mmHg 26%
    16:00 +33°C° 0.1 mm 5 mps 759 mmHg 30%
    17:00 +30°C° 0.1 mm 5 mps 759 mmHg 33%
    18:00 +29°C° 0.1 mm 6 mps 759 mmHg 37%
    19:00 +28°C° 0.1 mm 5 mps 759 mmHg 41%
    20:00 +27°C° 0.1 mm 4 mps 759 mmHg 44%
    21:00 +26°C° 0.1 mm 3 mps 760 mmHg 48%
    22:00 +26°C° 0 mm 2 mps 760 mmHg 51%
    23:00 +25°C° 0 mm 2 mps 759 mmHg 54%

    31 May, Friday

    Time Temperature Precipitation Wind Pressure Humidity
    00:00 +24°C° 0 mm 1 mps 759 mmHg 57%
    01:00 +24°C° 0 mm 1 mps 759 mmHg 58%
    02:00 +24°C° 0 mm 1 mps 759 mmHg 58%
    03:00 +22°C° 0 mm 0 mps 759 mmHg 59%
    04:00 +22°C° 0 mm 0 mps 759 mmHg 56%
    05:00 +23°C° 0 mm 0 mps 759 mmHg 54%
    06:00 +23°C° 0 mm 0 mps 759 mmHg 51%
    07:00 +27°C° 0 mm 1 mps 759 mmHg 46%
    08:00 +28°C° 0 mm 1 mps 759 mmHg 41%
    09:00 +29°C° 0 mm 2 mps 759 mmHg 36%
    10:00 +30°C° 0 mm 2 mps 759 mmHg 34%
    11:00 +31°C° 0 mm 1 mps 759 mmHg 32%
    12:00 +32°C° 0 mm 1 mps 759 mmHg 30%
    13:00 +32°C° 0 mm 2 mps 758 mmHg 30%
    14:00 +33°C° 0 mm 3 mps 758 mmHg 31%
    15:00 +33°C° 0 mm 4 mps 758 mmHg 32%
    16:00 +32°C° 0 mm 5 mps 758 mmHg 34%
    17:00 +30°C° 0 mm 5 mps 758 mmHg 37%
    18:00 +29°C° 0 mm 6 mps 758 mmHg 40%
    19:00 +28°C° 0 mm 5 mps 758 mmHg 43%
    20:00 +27°C° 0 mm 4 mps 759 mmHg 46%
    21:00 +26°C° 0 mm 3 mps 759 mmHg 50%
    22:00 +25°C° 0 mm 3 mps 759 mmHg 52%
    23:00 +25°C° 0 mm 2 mps 759 mmHg 54%

    1 June, Saturday

    Time Temperature Precipitation Wind Pressure Humidity
    00:00 +24°C° 0 mm 1 mps 758 mmHg 57%
    01:00 +24°C° 0 mm 1 mps 758 mmHg 57%
    02:00 +24°C° 0 mm 1 mps 758 mmHg 58%
    03:00 +24°C° 0 mm 1 mps 758 mmHg 59%
    04:00 +24°C° 0 mm 1 mps 758 mmHg 57%
    05:00 +25°C° 0 mm 1 mps 758 mmHg 55%
    06:00 +25°C° 0 mm 1 mps 758 mmHg 53%
    07:00 +26°C° 0 mm 1 mps 758 mmHg 48%
    08:00 +28°C° 0 mm 1 mps 759 mmHg 43%
    09:00 +29°C° 0 mm 1 mps 759 mmHg 39%
    10:00 +30°C° 0 mm 1 mps 758 mmHg 36%
    11:00 +31°C° 0 mm 2 mps 758 mmHg 33%
    12:00 +32°C° 0 mm 2 mps 758 mmHg 30%
    13:00 +33°C° 0 mm 3 mps 758 mmHg 30%
    14:00 +33°C° 0 mm 4 mps 757 mmHg 30%
    15:00 +34°C° 0 mm 5 mps 757 mmHg 29%
    16:00 +32°C° 0 mm 5 mps 757 mmHg 33%
    17:00 +30°C° 0 mm 6 mps 757 mmHg 36%
    18:00 +29°C° 0 mm 6 mps 757 mmHg 39%
    19:00 +28°C° 0 mm 5 mps 758 mmHg 43%
    20:00 +27°C° 0 mm 4 mps 758 mmHg 48%
    21:00 +26°C° 0 mm 3 mps 758 mmHg 52%
    22:00 +26°C° 0 mm 2 mps 758 mmHg 53%
    23:00 +26°C° 0 mm 2 mps 758 mmHg 55%
    Show more